Tracking 18852 objects as of 23-Nov-2017
HD Live streaming from Space Station
objects crossing your sky now

FENGYUN 1C DEB

Track FENGYUN 1C DEB now!
10-day predictions


NORAD ID: 30050
Int'l Code: 1999-025PB
Perigee: 839.0 km
Apogee: 1,105.2 km
Inclination: 96.8 °
Period: 104.4 minutes
Semi major axis: 7343 km
RCS: 0.035 m2 (small)
Launch date: May 10, 1999
Source: People's Republic of China (PRC)
Launch site: Taiyaun Space Center, China (TSC)

Note: This is SATELLITE DEBRIS
aabbcc
Your satellite tracking list
Your tracking list is empty




NASA's NSSDC Master Catalog

Two Line Element Set (TLE):
1 30050U 99025PB  17327.54794833  .00000447  00000-0  40302-3 0  9993
2 30050  96.8089 337.4719 0181273  92.2766  31.2268 13.79699788546125
Source of the keplerian elements: AFSPC